| time (UTC) | temp F | wind direction | speed MPH | gust MPH | rain 1hr in | rain 24hr in | rain mn in | humidity % | barometer mb |
| 20260506001537 | 58 | 188 | 5.0 | 13.0 | 0.00 | 0.00 | 0.00 | 76 | 1010.2 |
| 20260506001023 | 58 | 98 | 4.0 | 13.0 | 0.00 | 0.00 | 0.00 | 76 | 1010.1 |
| 20260506000521 | 58 | 195 | 3.0 | 13.0 | 0.00 | 0.00 | 0.00 | 76 | 1010.0 |
| 20260506000039 | 58 | 232 | 5.0 | 11.0 | 0.00 | 0.00 | 0.00 | 76 | 1009.9 |
| 20260505235521 | 59 | 199 | 2.0 | 9.0 | 0.00 | 0.00 | 0.00 | 75 | 1009.9 |
| 20260505235021 | 59 | 193 | 3.0 | 8.0 | 0.00 | 0.00 | 0.00 | 75 | 1010.1 |
| 20260505234600 | 59 | 189 | 4.0 | 12.0 | 0.00 | 0.00 | 0.00 | 75 | 1010.1 |
| 20260505234020 | 59 | 202 | 5.0 | 12.0 | 0.00 | 0.00 | 0.00 | 75 | 1010.1 |
| 20260505233520 | 59 | 170 | 4.0 | 11.0 | 0.00 | 0.00 | 0.00 | 74 | 1009.9 |
| 20260505233035 | 59 | 233 | 5.0 | 14.0 | 0.00 | 0.00 | 0.00 | 74 | 1009.8 |
| 20260505232518 | 59 | 273 | 7.0 | 14.0 | 0.00 | 0.00 | 0.00 | 74 | 1009.8 |
| 20260505232018 | 60 | 195 | 6.0 | 16.0 | 0.00 | 0.00 | 0.00 | 74 | 1009.7 |
| 20260505231534 | 60 | 219 | 6.0 | 16.0 | 0.00 | 0.00 | 0.00 | 73 | 1009.6 |
| 20260505231017 | 60 | 211 | 5.0 | 16.0 | 0.00 | 0.00 | 0.00 | 73 | 1009.2 |
| 20260505230521 | 60 | 83 | 5.0 | 20.0 | 0.00 | 0.00 | 0.00 | 73 | 1009.1 |
| 20260505230041 | 60 | 150 | 8.0 | 20.0 | 0.00 | 0.00 | 0.00 | 73 | 1009.2 |
| 20260505225522 | 61 | 181 | 7.0 | 18.0 | 0.00 | 0.00 | 0.00 | 72 | 1009.0 |
| 20260505225018 | 61 | 117 | 8.0 | 18.0 | 0.00 | 0.00 | 0.00 | 72 | 1009.1 |
| 20260505224538 | 61 | 172 | 4.0 | 13.0 | 0.00 | 0.00 | 0.00 | 72 | 1009.3 |
| 20260505224024 | 62 | 252 | 6.0 | 14.0 | 0.00 | 0.00 | 0.00 | 71 | 1009.3 |
| 20260505223520 | 62 | 205 | 5.0 | 14.0 | 0.00 | 0.00 | 0.00 | 71 | 1009.2 |
| 20260505223037 | 62 | 233 | 7.0 | 16.0 | 0.00 | 0.00 | 0.00 | 70 | 1009.3 |
| 20260505222520 | 63 | 188 | 6.0 | 18.0 | 0.00 | 0.00 | 0.00 | 69 | 1009.3 |
| 20260505222024 | 63 | 200 | 7.0 | 18.0 | 0.00 | 0.00 | 0.00 | 69 | 1009.3 |
| 20260505221532 | 64 | 206 | 4.0 | 14.0 | 0.00 | 0.00 | 0.00 | 68 | 1009.2 |
| 20260505221018 | 64 | 205 | 6.0 | 14.0 | 0.00 | 0.00 | 0.00 | 67 | 1009.1 |
| 20260505220517 | 65 | 290 | 5.0 | 13.0 | 0.00 | 0.00 | 0.00 | 66 | 1009.0 |
| 20260505220042 | 65 | 164 | 5.0 | 14.0 | 0.00 | 0.00 | 0.00 | 66 | 1008.9 |
| 20260505215518 | 65 | 228 | 6.0 | 21.0 | 0.00 | 0.00 | 0.00 | 66 | 1008.9 |
| 20260505215021 | 65 | 159 | 10.0 | 21.0 | 0.00 | 0.00 | 0.00 | 65 | 1009.0 |
| 20260505214551 | 65 | 139 | 7.0 | 16.0 | 0.00 | 0.00 | 0.00 | 65 | 1008.8 |
| 20260505214021 | 66 | 217 | 5.0 | 14.0 | 0.00 | 0.00 | 0.00 | 65 | 1008.8 |
| 20260505213522 | 66 | 226 | 7.0 | 18.0 | 0.00 | 0.00 | 0.00 | 65 | 1008.8 |
| 20260505213037 | 66 | 216 | 7.0 | 21.0 | 0.00 | 0.00 | 0.00 | 65 | 1008.9 |
| 20260505212522 | 66 | 221 | 8.0 | 21.0 | 0.00 | 0.00 | 0.00 | 64 | 1008.9 |
| 20260505212021 | 66 | 178 | 6.0 | 21.0 | 0.00 | 0.00 | 0.00 | 64 | 1008.8 |
| 20260505211541 | 66 | 222 | 7.0 | 21.0 | 0.00 | 0.00 | 0.00 | 63 | 1008.9 |
| 20260505211018 | 67 | 225 | 8.0 | 19.0 | 0.00 | 0.00 | 0.00 | 62 | 1008.9 |
| 20260505210520 | 68 | 195 | 8.0 | 15.0 | 0.00 | 0.00 | 0.00 | 63 | 1008.8 |
| 20260505210039 | 68 | 215 | 7.0 | 13.0 | 0.00 | 0.00 | 0.00 | 62 | 1008.7 |
| 20260505205518 | 68 | 124 | 6.0 | 16.0 | 0.00 | 0.00 | 0.00 | 63 | 1008.6 |
| 20260505205020 | 67 | 203 | 6.0 | 17.0 | 0.00 | 0.00 | 0.00 | 64 | 1008.7 |
| 20260505204538 | 67 | 155 | 9.0 | 17.0 | 0.00 | 0.00 | 0.00 | 64 | 1008.8 |
| 20260505204020 | 67 | 201 | 7.0 | 23.0 | 0.00 | 0.00 | 0.00 | 64 | 1009.0 |
| 20260505203521 | 67 | 208 | 7.0 | 23.0 | 0.00 | 0.00 | 0.00 | 64 | 1008.9 |
| 20260505203050 | 67 | 168 | 8.0 | 22.0 | 0.00 | 0.00 | 0.00 | 63 | 1008.9 |
| 20260505202520 | 68 | 209 | 6.0 | 17.0 | 0.00 | 0.00 | 0.00 | 63 | 1008.9 |
| 20260505202023 | 68 | 238 | 9.0 | 17.0 | 0.00 | 0.00 | 0.00 | 61 | 1009.1 |
| 20260505201537 | 69 | 214 | 6.0 | 16.0 | 0.00 | 0.00 | 0.00 | 62 | 1008.9 |
| 20260505201020 | 68 | 135 | 7.0 | 20.0 | 0.00 | 0.00 | 0.00 | 62 | 1008.8 |
| 20260505200522 | 68 | 179 | 9.0 | 20.0 | 0.00 | 0.00 | 0.00 | 61 | 1008.8 |
| 20260505200038 | 68 | 180 | 10.0 | 20.0 | 0.00 | 0.00 | 0.00 | 60 | 1008.7 |
| 20260505195522 | 69 | 188 | 8.0 | 20.0 | 0.00 | 0.00 | 0.00 | 60 | 1008.9 |
| 20260505195020 | 69 | 173 | 8.0 | 21.0 | 0.00 | 0.00 | 0.00 | 59 | 1008.9 |
| 20260505194534 | 70 | 142 | 8.0 | 21.0 | 0.00 | 0.00 | 0.00 | 58 | 1008.9 |
| 20260505194021 | 71 | 197 | 7.0 | 18.0 | 0.00 | 0.00 | 0.00 | 57 | 1008.9 |
| 20260505193521 | 71 | 234 | 7.0 | 18.0 | 0.00 | 0.00 | 0.00 | 57 | 1008.8 |
| 20260505193031 | 72 | 187 | 8.0 | 16.0 | 0.00 | 0.00 | 0.00 | 56 | 1008.8 |
| 20260505192523 | 72 | 210 | 5.0 | 18.0 | 0.00 | 0.00 | 0.00 | 57 | 1008.6 |
| 20260505192020 | 72 | 193 | 6.0 | 18.0 | 0.00 | 0.00 | 0.00 | 56 | 1008.6 |
| 20260505191544 | 72 | 123 | 10.0 | 18.0 | 0.00 | 0.00 | 0.00 | 55 | 1008.7 |
| 20260505191021 | 73 | 188 | 5.0 | 19.0 | 0.00 | 0.00 | 0.00 | 56 | 1008.8 |
| 20260505190520 | 72 | 147 | 9.0 | 19.0 | 0.00 | 0.00 | 0.00 | 56 | 1008.6 |
| 20260505190041 | 73 | 55 | 7.0 | 19.0 | 0.00 | 0.00 | 0.00 | 56 | 1008.7 |
| 20260505185520 | 73 | 231 | 5.0 | 21.0 | 0.00 | 0.00 | 0.00 | 57 | 1008.7 |
| 20260505185020 | 73 | 224 | 5.0 | 21.0 | 0.00 | 0.00 | 0.00 | 56 | 1008.7 |
| 20260505184546 | 73 | 264 | 8.0 | 22.0 | 0.00 | 0.00 | 0.00 | 55 | 1008.8 |
| 20260505184021 | 73 | 207 | 9.0 | 22.0 | 0.00 | 0.00 | 0.00 | 55 | 1008.8 |
| 20260505183520 | 73 | 139 | 9.0 | 18.0 | 0.00 | 0.00 | 0.00 | 55 | 1008.8 |
| 20260505183041 | 73 | 177 | 7.0 | 14.0 | 0.00 | 0.00 | 0.00 | 55 | 1009.0 |
| 20260505182521 | 73 | 192 | 7.0 | 14.0 | 0.00 | 0.00 | 0.00 | 54 | 1008.9 |
| 20260505182021 | 73 | 140 | 6.0 | 14.0 | 0.00 | 0.00 | 0.00 | 54 | 1008.9 |
| 20260505181535 | 73 | 215 | 6.0 | 14.0 | 0.00 | 0.00 | 0.00 | 56 | 1008.9 |
| 20260505181021 | 73 | 157 | 7.0 | 17.0 | 0.00 | 0.00 | 0.00 | 56 | 1009.1 |
| 20260505180522 | 73 | 257 | 7.0 | 17.0 | 0.00 | 0.00 | 0.00 | 55 | 1009.1 |
| 20260505180033 | 72 | 151 | 6.0 | 16.0 | 0.00 | 0.00 | 0.00 | 57 | 1009.2 |
| 20260505175520 | 72 | 79 | 8.0 | 16.0 | 0.00 | 0.00 | 0.00 | 56 | 1009.3 |
| 20260505175022 | 72 | 101 | 6.0 | 20.0 | 0.00 | 0.00 | 0.00 | 56 | 1009.6 |
| 20260505174538 | 72 | 218 | 10.0 | 20.0 | 0.00 | 0.00 | 0.00 | 56 | 1009.6 |
| 20260505174020 | 72 | 196 | 7.0 | 13.0 | 0.00 | 0.00 | 0.00 | 56 | 1009.7 |
| 20260505173520 | 72 | 149 | 6.0 | 18.0 | 0.00 | 0.00 | 0.00 | 57 | 1009.6 |
| 20260505173037 | 71 | 206 | 7.0 | 20.0 | 0.00 | 0.00 | 0.00 | 58 | 1009.7 |
| 20260505172520 | 71 | 226 | 8.0 | 20.0 | 0.00 | 0.00 | 0.00 | 57 | 1009.7 |
| 20260505172020 | 71 | 219 | 8.0 | 19.0 | 0.00 | 0.00 | 0.00 | 57 | 1009.7 |
| 20260505171537 | 72 | 263 | 7.0 | 19.0 | 0.00 | 0.00 | 0.00 | 57 | 1009.7 |
| 20260505171020 | 72 | 198 | 7.0 | 17.0 | 0.00 | 0.00 | 0.00 | 57 | 1009.7 |
| 20260505170521 | 72 | 230 | 6.0 | 14.0 | 0.00 | 0.00 | 0.00 | 58 | 1009.7 |
| 20260505170038 | 73 | 156 | 4.0 | 14.0 | 0.00 | 0.00 | 0.00 | 58 | 1009.7 |
| 20260505165521 | 72 | 27 | 4.0 | 16.0 | 0.00 | 0.00 | 0.00 | 60 | 1009.8 |
| 20260505165021 | 72 | 333 | 7.0 | 16.0 | 0.00 | 0.00 | 0.00 | 58 | 1010.1 |
| 20260505164536 | 73 | 200 | 6.0 | 16.0 | 0.00 | 0.00 | 0.00 | 59 | 1010.1 |
| 20260505164021 | 73 | 198 | 6.0 | 17.0 | 0.00 | 0.00 | 0.00 | 58 | 1010.0 |
| 20260505163520 | 73 | 142 | 6.0 | 17.0 | 0.00 | 0.00 | 0.00 | 58 | 1010.1 |
| 20260505163039 | 73 | 212 | 5.0 | 12.0 | 0.00 | 0.00 | 0.00 | 57 | 1010.1 |
| 20260505162523 | 73 | 214 | 5.0 | 12.0 | 0.00 | 0.00 | 0.00 | 57 | 1010.1 |
| 20260505162019 | 73 | 167 | 5.0 | 12.0 | 0.00 | 0.00 | 0.00 | 59 | 1010.1 |
| 20260505161540 | 73 | 143 | 5.0 | 12.0 | 0.00 | 0.00 | 0.00 | 58 | 1010.0 |
| 20260505161024 | 73 | 217 | 5.0 | 12.0 | 0.00 | 0.00 | 0.00 | 57 | 1010.1 |
| 20260505160519 | 73 | 203 | 6.0 | 13.0 | 0.00 | 0.00 | 0.00 | 57 | 1010.1 |
| 20260505153044 | 71 | 217 | 5.0 | 11.0 | 0.00 | 0.00 | 0.00 | 60 | 1010.1 |
| 20260505152518 | 71 | 150 | 6.0 | 11.0 | 0.00 | 0.00 | 0.00 | 61 | 1010.1 |
| 20260505152018 | 71 | 271 | 6.0 | 10.0 | 0.00 | 0.00 | 0.00 | 61 | 1010.1 |
| 20260505151544 | 71 | 87 | 3.0 | 11.0 | 0.00 | 0.00 | 0.00 | 62 | 1010.2 |
| 20260505151021 | 70 | 228 | 3.0 | 12.0 | 0.00 | 0.00 | 0.00 | 63 | 1010.2 |
| 20260505150520 | 69 | 148 | 4.0 | 12.0 | 0.00 | 0.00 | 0.00 | 64 | 1010.2 |
| 20260505140523 | 67 | 220 | 4.0 | 11.0 | 0.00 | 0.00 | 0.00 | 69 | 1010.3 |
| 20260505125019 | 61 | 142 | 5.0 | 11.0 | 0.00 | 0.00 | 0.00 | 74 | 1010.9 |
| 20260505124537 | 61 | 191 | 3.0 | 9.0 | 0.00 | 0.00 | 0.00 | 74 | 1011.2 |
| 20260505124018 | 60 | 143 | 4.0 | 12.0 | 0.00 | 0.00 | 0.00 | 74 | 1011.2 |
| 20260505123520 | 60 | 238 | 4.0 | 12.0 | 0.00 | 0.00 | 0.00 | 75 | 1011.2 |
| 20260505123036 | 60 | 221 | 5.0 | 12.0 | 0.00 | 0.00 | 0.00 | 75 | 1011.1 |
| 20260505122520 | 60 | 226 | 5.0 | 11.0 | 0.00 | 0.00 | 0.00 | 76 | 1010.9 |
| 20260505122019 | 59 | 229 | 6.0 | 11.0 | 0.00 | 0.00 | 0.00 | 76 | 1010.9 |
| 20260505121538 | 59 | 239 | 3.0 | 11.0 | 0.00 | 0.00 | 0.00 | 77 | 1010.9 |
| 20260505121019 | 58 | 197 | 3.0 | 11.0 | 0.00 | 0.00 | 0.00 | 78 | 1010.9 |
| 20260505120518 | 58 | 193 | 5.0 | 11.0 | 0.00 | 0.00 | 0.00 | 78 | 1010.8 |
| 20260505120037 | 58 | 204 | 4.0 | 11.0 | 0.00 | 0.00 | 0.00 | 79 | 1010.9 |
| 20260505115518 | 57 | 139 | 4.0 | 9.0 | 0.00 | 0.00 | 0.00 | 79 | 1010.9 |
| 20260505115019 | 57 | 189 | 5.0 | 9.0 | 0.00 | 0.00 | 0.00 | 80 | 1010.8 |
| 20260505114537 | 57 | 209 | 2.0 | 6.0 | 0.00 | 0.00 | 0.00 | 81 | 1010.9 |
| 20260505114019 | 56 | 204 | 1.0 | 10.0 | 0.00 | 0.00 | 0.00 | 83 | 1010.8 |
| 20260505113519 | 55 | 222 | 3.0 | 10.0 | 0.00 | 0.00 | 0.00 | 83 | 1010.9 |
| 20260505113042 | 54 | 217 | 3.0 | 11.0 | 0.00 | 0.00 | 0.00 | 84 | 1010.9 |
| 20260505112519 | 54 | 201 | 5.0 | 11.0 | 0.00 | 0.00 | 0.00 | 85 | 1010.9 |
| 20260505112019 | 53 | 221 | 4.0 | 8.0 | 0.00 | 0.00 | 0.00 | 86 | 1010.9 |
| 20260505111542 | 53 | 224 | 4.0 | 7.0 | 0.00 | 0.00 | 0.00 | 86 | 1010.9 |
| 20260505111019 | 53 | 136 | 3.0 | 8.0 | 0.00 | 0.00 | 0.00 | 87 | 1010.8 |
| 20260505110518 | 52 | 179 | 3.0 | 8.0 | 0.00 | 0.00 | 0.00 | 88 | 1010.7 |
| 20260505102019 | 49 | 169 | 0.0 | 2.0 | 0.00 | 0.00 | 0.00 | 91 | 1010.7 |
| 20260505101536 | 49 | 0 | 0.0 | 2.0 | 0.00 | 0.00 | 0.00 | 91 | 1010.6 |
| 20260505101023 | 49 | 175 | 1.0 | 2.0 | 0.00 | 0.00 | 0.00 | 91 | 1010.7 |
| 20260505100519 | 49 | 193 | 1.0 | 2.0 | 0.00 | 0.00 | 0.00 | 91 | 1010.6 |
| 20260505100039 | 49 | 139 | 0.0 | 2.0 | 0.00 | 0.00 | 0.00 | 91 | 1010.6 |
| 20260505095520 | 49 | 158 | 0.0 | 2.0 | 0.00 | 0.00 | 0.00 | 91 | 1010.6 |
| 20260505095019 | 49 | 0 | 0.0 | 3.0 | 0.00 | 0.00 | 0.00 | 91 | 1010.7 |
| 20260505094537 | 49 | 0 | 0.0 | 5.0 | 0.00 | 0.00 | 0.00 | 91 | 1010.7 |
| 20260505094019 | 49 | 167 | 1.0 | 5.0 | 0.00 | 0.00 | 0.00 | 91 | 1010.8 |
| 20260505093519 | 49 | 167 | 0.0 | 4.0 | 0.00 | 0.00 | 0.00 | 92 | 1010.7 |
| 20260505093046 | 49 | 167 | 1.0 | 3.0 | 0.00 | 0.00 | 0.00 | 91 | 1010.8 |
| 20260505092519 | 49 | 0 | 0.0 | 2.0 | 0.00 | 0.00 | 0.00 | 91 | 1010.8 |
| 20260505092019 | 49 | 193 | 0.0 | 2.0 | 0.00 | 0.00 | 0.00 | 91 | 1010.9 |
| 20260505091534 | 48 | 0 | 0.0 | 2.0 | 0.00 | 0.00 | 0.00 | 91 | 1010.9 |
| 20260505091021 | 48 | 0 | 0.0 | 3.0 | 0.00 | 0.00 | 0.00 | 91 | 1010.8 |
| 20260505090519 | 48 | 153 | 1.0 | 3.0 | 0.00 | 0.00 | 0.00 | 91 | 1010.8 |
| 20260505090039 | 48 | 0 | 0.0 | 2.0 | 0.00 | 0.00 | 0.00 | 91 | 1010.9 |
| 20260505085520 | 48 | 172 | 0.0 | 1.0 | 0.00 | 0.00 | 0.00 | 91 | 1010.9 |
| 20260505085020 | 48 | 0 | 0.0 | 3.0 | 0.00 | 0.00 | 0.00 | 90 | 1011.0 |
| 20260505084540 | 48 | 0 | 1.0 | 3.0 | 0.00 | 0.00 | 0.00 | 91 | 1011.1 |
| 20260505084018 | 48 | 0 | 0.0 | 2.0 | 0.00 | 0.00 | 0.00 | 90 | 1010.9 |
| 20260505083519 | 48 | 153 | 0.0 | 2.0 | 0.00 | 0.00 | 0.00 | 90 | 1011.0 |
| 20260505083047 | 48 | 216 | 0.0 | 3.0 | 0.00 | 0.00 | 0.00 | 90 | 1010.9 |
| 20260505082519 | 48 | 186 | 0.0 | 4.0 | 0.00 | 0.00 | 0.00 | 90 | 1011.0 |
| 20260505082019 | 48 | 201 | 1.0 | 4.0 | 0.00 | 0.00 | 0.00 | 90 | 1011.0 |
| 20260505081537 | 48 | 158 | 1.0 | 3.0 | 0.00 | 0.00 | 0.00 | 90 | 1010.7 |
| 20260505081022 | 48 | 199 | 1.0 | 3.0 | 0.00 | 0.00 | 0.00 | 90 | 1010.8 |
| 20260505080522 | 48 | 193 | 1.0 | 2.0 | 0.00 | 0.00 | 0.00 | 90 | 1010.9 |
| 20260505080036 | 48 | 0 | 0.0 | 2.0 | 0.00 | 0.00 | 0.00 | 90 | 1010.9 |
| 20260505075520 | 48 | 128 | 0.0 | 3.0 | 0.00 | 0.00 | 0.00 | 89 | 1011.0 |
| 20260505075019 | 48 | 156 | 0.0 | 3.0 | 0.00 | 0.00 | 0.00 | 89 | 1011.0 |
| 20260505074536 | 48 | 209 | 1.0 | 3.0 | 0.00 | 0.00 | 0.00 | 89 | 1011.1 |
| 20260505074019 | 49 | 180 | 1.0 | 3.0 | 0.00 | 0.00 | 0.00 | 89 | 1011.1 |
| 20260505073519 | 49 | 165 | 0.0 | 2.0 | 0.00 | 0.00 | 0.00 | 89 | 1011.0 |
| 20260505073041 | 49 | 0 | 0.0 | 3.0 | 0.00 | 0.00 | 0.00 | 89 | 1011.0 |
| 20260505072518 | 49 | 200 | 1.0 | 3.0 | 0.00 | 0.00 | 0.00 | 89 | 1011.1 |
| 20260505072018 | 49 | 220 | 1.0 | 3.0 | 0.00 | 0.00 | 0.00 | 88 | 1011.0 |
| 20260505071537 | 49 | 207 | 1.0 | 4.0 | 0.00 | 0.00 | 0.00 | 88 | 1011.1 |
| 20260505071018 | 49 | 212 | 1.0 | 4.0 | 0.00 | 0.00 | 0.00 | 88 | 1011.0 |
| 20260505070518 | 49 | 226 | 1.0 | 4.0 | 0.00 | 0.00 | 0.00 | 88 | 1011.1 |
| 20260505070049 | 49 | 259 | 1.0 | 5.0 | 0.00 | 0.00 | 0.00 | 88 | 1011.0 |
| 20260505065519 | 49 | 158 | 2.0 | 5.0 | 0.00 | 0.00 | 0.00 | 88 | 1011.0 |
| 20260505065018 | 49 | 152 | 1.0 | 3.0 | 0.00 | 0.00 | 0.00 | 88 | 1011.1 |
| 20260505064537 | 49 | 100 | 1.0 | 4.0 | 0.00 | 0.00 | 0.00 | 87 | 1011.1 |
| 20260505064019 | 49 | 0 | 2.0 | 4.0 | 0.00 | 0.00 | 0.00 | 87 | 1011.2 |
| 20260505063519 | 49 | 231 | 1.0 | 5.0 | 0.00 | 0.00 | 0.00 | 87 | 1011.1 |
| 20260505063032 | 49 | 219 | 1.0 | 7.0 | 0.00 | 0.00 | 0.00 | 87 | 1011.2 |
| 20260505062520 | 49 | 212 | 2.0 | 7.0 | 0.00 | 0.00 | 0.00 | 87 | 1011.2 |
| 20260505062019 | 49 | 136 | 2.0 | 5.0 | 0.00 | 0.00 | 0.00 | 86 | 1011.3 |
| 20260505061558 | 49 | 188 | 1.0 | 5.0 | 0.00 | 0.00 | 0.00 | 86 | 1011.2 |
| 20260505061018 | 49 | 175 | 2.0 | 5.0 | 0.00 | 0.00 | 0.00 | 86 | 1011.2 |
| 20260505060519 | 49 | 226 | 1.0 | 4.0 | 0.00 | 0.00 | 0.00 | 86 | 1011.2 |
| 20260505060045 | 50 | 195 | 1.0 | 6.0 | 0.00 | 0.00 | 0.00 | 86 | 1011.3 |
| 20260505055519 | 50 | 243 | 1.0 | 6.0 | 0.00 | 0.00 | 0.00 | 85 | 1011.2 |
| 20260505055019 | 50 | 235 | 1.0 | 6.0 | 0.00 | 0.00 | 0.00 | 85 | 1011.2 |
| 20260505054546 | 50 | 214 | 2.0 | 5.0 | 0.00 | 0.00 | 0.00 | 85 | 1011.2 |
| 20260505054018 | 50 | 179 | 2.0 | 5.0 | 0.00 | 0.00 | 0.00 | 85 | 1011.1 |
| 20260505053518 | 50 | 191 | 2.0 | 5.0 | 0.00 | 0.00 | 0.00 | 85 | 1011.2 |
| 20260505053035 | 50 | 204 | 2.0 | 5.0 | 0.00 | 0.00 | 0.00 | 85 | 1011.2 |
| 20260505052519 | 50 | 210 | 1.0 | 5.0 | 0.00 | 0.00 | 0.00 | 84 | 1011.1 |
| 20260505052025 | 50 | 165 | 2.0 | 5.0 | 0.00 | 0.00 | 0.00 | 84 | 1011.1 |
| 20260505051532 | 50 | 237 | 2.0 | 7.0 | 0.00 | 0.00 | 0.00 | 84 | 1011.2 |
| 20260505051019 | 50 | 184 | 2.0 | 7.0 | 0.00 | 0.00 | 0.00 | 84 | 1011.2 |
| 20260505050518 | 50 | 208 | 2.0 | 6.0 | 0.00 | 0.00 | 0.00 | 83 | 1011.2 |
| 20260505041537 | 51 | 211 | 3.0 | 7.0 | 0.00 | 0.00 | 0.00 | 82 | 1011.5 |
| 20260505041019 | 51 | 217 | 2.0 | 8.0 | 0.00 | 0.00 | 0.00 | 81 | 1011.4 |
| 20260505040519 | 51 | 179 | 2.0 | 9.0 | 0.00 | 0.00 | 0.00 | 81 | 1011.5 |
| 20260505040051 | 51 | 170 | 3.0 | 9.0 | 0.00 | 0.00 | 0.00 | 81 | 1011.4 |
| 20260505035519 | 51 | 229 | 2.0 | 10.0 | 0.00 | 0.00 | 0.00 | 81 | 1011.4 |
| 20260505035020 | 51 | 195 | 3.0 | 10.0 | 0.00 | 0.00 | 0.00 | 80 | 1011.3 |
| 20260505034540 | 51 | 159 | 3.0 | 7.0 | 0.00 | 0.00 | 0.00 | 80 | 1011.2 |
| 20260505034019 | 51 | 209 | 3.0 | 6.0 | 0.00 | 0.00 | 0.00 | 80 | 1011.2 |
| 20260505033519 | 51 | 221 | 2.0 | 7.0 | 0.00 | 0.00 | 0.00 | 79 | 1011.3 |
| 20260505033038 | 52 | 203 | 3.0 | 7.0 | 0.00 | 0.00 | 0.00 | 79 | 1011.2 |
| 20260505032520 | 52 | 187 | 2.0 | 6.0 | 0.00 | 0.00 | 0.00 | 79 | 1011.1 |
| 20260505032020 | 52 | 153 | 3.0 | 6.0 | 0.00 | 0.00 | 0.00 | 78 | 1011.1 |
| 20260505031547 | 52 | 217 | 2.0 | 6.0 | 0.00 | 0.00 | 0.00 | 78 | 1011.2 |
| 20260505031018 | 52 | 172 | 3.0 | 9.0 | 0.00 | 0.00 | 0.00 | 78 | 1011.3 |
| 20260505030518 | 52 | 198 | 3.0 | 9.0 | 0.00 | 0.00 | 0.00 | 78 | 1011.4 |
| 20260505030041 | 52 | 193 | 2.0 | 9.0 | 0.00 | 0.00 | 0.00 | 77 | 1011.5 |
| 20260505025520 | 52 | 155 | 3.0 | 9.0 | 0.00 | 0.00 | 0.00 | 77 | 1011.4 |
| 20260505025018 | 52 | 172 | 3.0 | 9.0 | 0.00 | 0.00 | 0.00 | 77 | 1011.4 |
| 20260505024537 | 53 | 203 | 1.0 | 7.0 | 0.00 | 0.00 | 0.00 | 76 | 1011.4 |
| 20260505024018 | 53 | 216 | 2.0 | 7.0 | 0.00 | 0.00 | 0.00 | 76 | 1011.4 |
| 20260505023519 | 53 | 231 | 3.0 | 7.0 | 0.00 | 0.00 | 0.00 | 75 | 1011.4 |
| 20260505023035 | 53 | 131 | 3.0 | 7.0 | 0.00 | 0.00 | 0.00 | 75 | 1011.3 |
| 20260505022520 | 53 | 204 | 3.0 | 7.0 | 0.00 | 0.00 | 0.00 | 75 | 1011.3 |
| 20260505022021 | 53 | 202 | 3.0 | 8.0 | 0.00 | 0.00 | 0.00 | 75 | 1011.4 |
| 20260505021538 | 54 | 164 | 3.0 | 9.0 | 0.00 | 0.00 | 0.00 | 74 | 1011.5 |
| 20260505021021 | 54 | 200 | 2.0 | 10.0 | 0.00 | 0.00 | 0.00 | 74 | 1011.5 |
| 20260505020518 | 54 | 224 | 3.0 | 10.0 | 0.00 | 0.00 | 0.00 | 74 | 1011.4 |
| 20260505020042 | 54 | 201 | 3.0 | 11.0 | 0.00 | 0.00 | 0.00 | 74 | 1011.4 |
| 20260505015519 | 54 | 198 | 4.0 | 11.0 | 0.00 | 0.00 | 0.00 | 73 | 1011.4 |
| 20260505015018 | 54 | 222 | 3.0 | 8.0 | 0.00 | 0.00 | 0.00 | 73 | 1011.4 |
| 20260505014542 | 55 | 170 | 3.0 | 10.0 | 0.00 | 0.00 | 0.00 | 73 | 1011.4 |
| 20260505014018 | 55 | 210 | 3.0 | 10.0 | 0.00 | 0.00 | 0.00 | 72 | 1011.3 |
| 20260505013520 | 55 | 179 | 4.0 | 10.0 | 0.00 | 0.00 | 0.00 | 72 | 1011.3 |
| 20260505013037 | 55 | 272 | 3.0 | 8.0 | 0.00 | 0.00 | 0.00 | 72 | 1011.2 |
| 20260505012518 | 55 | 242 | 3.0 | 13.0 | 0.00 | 0.00 | 0.00 | 71 | 1011.2 |
| 20260505012018 | 55 | 203 | 4.0 | 13.0 | 0.00 | 0.00 | 0.00 | 71 | 1011.2 |
| 20260505011538 | 55 | 191 | 5.0 | 14.0 | 0.00 | 0.00 | 0.00 | 70 | 1011.1 |
| 20260505011019 | 56 | 231 | 6.0 | 14.0 | 0.00 | 0.00 | 0.00 | 70 | 1011.0 |
| 20260505010520 | 56 | 165 | 4.0 | 12.0 | 0.00 | 0.00 | 0.00 | 69 | 1010.9 |
| 20260505010041 | 56 | 172 | 4.0 | 14.0 | 0.00 | 0.00 | 0.00 | 69 | 1010.9 |
| 20260505005519 | 56 | 216 | 3.0 | 14.0 | 0.00 | 0.00 | 0.00 | 68 | 1010.9 |
| 20260505005019 | 56 | 207 | 5.0 | 14.0 | 0.00 | 0.00 | 0.00 | 67 | 1010.7 |
| 20260505004538 | 56 | 192 | 4.0 | 14.0 | 0.00 | 0.00 | 0.00 | 67 | 1010.5 |
| 20260505004018 | 56 | 221 | 5.0 | 14.0 | 0.00 | 0.00 | 0.00 | 66 | 1010.3 |
| 20260505003521 | 56 | 183 | 4.0 | 13.0 | 0.00 | 0.00 | 0.00 | 65 | 1010.4 |
| 20260505003037 | 57 | 214 | 6.0 | 13.0 | 0.00 | 0.00 | 0.00 | 65 | 1010.2 |
| 20260505002518 | 57 | 173 | 4.0 | 12.0 | 0.00 | 0.00 | 0.00 | 64 | 1010.1 |
| 20260505002018 | 57 | 247 | 4.0 | 12.0 | 0.00 | 0.00 | 0.00 | 63 | 1010.0 |